Temperature
22 23 24 24 25 24 22 20 19 20 18 18 17 17 19 19 19 18 17 17 16 15 15 14 13 12 12 12 11 11 10 10 10 9 9 9 9 9 8 8 8 8 8 8
22 24 24 24 25 25 24 23 21 20 19 18 19 20 19 19 18 17 17 16 16 15 14 13 13 12 12 11 11 11 10 10 9 9 9 9 9 8 8 8 8 8 8 8
20 21 22 23 24 24 24 24 22 20 19 18 18 18 18 18 18 17 17 16 16 15 14 13 12 12 11 11 11 10 10 10 9 9 9 9 8 8 8 8 8 8 8 8
19 20 22 21 23 24 22 21 21 19 18 18 18 19 19 18 18 18 17 16 15 14 14 13 12 12 11 11 10 10 10 9 9 9 8 8 8 8 8 8 8 8 8 8
18 20 21 22 24 23 21 20 20 19 18 18 18 17 17 18 18 17 17 16 15 14 13 13 12 12 11 11 10 10 10 9 9 8 8 8 8 8 8 8 8 8 8 8
19 20 20 21 24 24 21 19 21 20 18 19 17 15 16 18 17 17 16 16 15 14 13 13 12 11 11 10 10 10 9 9 9 8 8 8 8 8 8 8 8 8 8 8
19 19 19 22 24 24 21 20 21 22 21 21 18 17 19 18 17 17 16 16 15 14 13 12 12 11 11 10 10 10 9 9 9 8 8 8 8 8 8 8 8 8 8 8
18 19 20 22 24 22 21 23 22 22 22 21 21 20 19 18 18 17 16 16 15 14 13 12 12 11 10 10 10 9 9 9 9 8 8 8 8 8 8 8 8 8 8 8
18 19 22 25 25 25 25 23 23 22 22 21 20 20 19 18 18 17 16 16 15 14 13 12 11 11 10 10 10 9 9 9 9 8 8 8 8 8 8 8 8 8 8 8
20 20 22 25 25 25 25 24 23 23 22 22 21 20 19 19 18 17 16 15 15 14 13 12 12 11 10 10 9 9 9 9 9 8 8 8 8 8 8 8 8 8 8 7
19 20 23 25 25 25 24 24 23 23 22 22 21 20 20 19 18 17 16 15 15 14 13 12 12 11 10 10 9 9 9 9 9 8 8 8 8 8 8 8 8 8 7 7
19 22 20 24 25 25 24 24 23 23 22 22 21 21 20 19 18 17 16 15 15 14 13 12 12 11 10 10 9 9 9 9 9 8 8 8 8 8 9 8 8 8 8 7
24 25 25 25 25 25 24 24 23 23 23 22 21 21 20 19 18 17 16 15 15 14 13 12 12 11 10 10 9 9 9 9 9 9 8 8 8 8 8 9 8 8 8 7
25 25 25 25 24 24 24 24 24 23 23 22 22 21 20 19 18 17 16 16 15 14 13 12 12 11 11 10 10 9 9 9 9 9 8 8 8 8 8 8 8 8 8 7
24 25 24 24 24 24 24 23 23 23 22 22 21 21 20 19 18 17 16 15 15 14 13 12 12 11 11 10 10 9 9 9 9 9 9 9 9 9 8 8 8 8 8 8
22 22 22 22 22 22 22 22 22 22 22 21 21 20 20 19 18 17 16 15 15 14 13 13 12 11 11 10 10 10 9 9 9 9 9 9 9 9 9 8 8 8 8 8
19 18 19 19 19 20 20 20 21 21 21 21 20 20 19 18 17 17 16 15 15 14 13 13 12 11 11 10 10 10 9 9 9 9 9 9 9 9 9 8 8 8 8 8
16 16 16 16 17 18 18 19 19 20 20 20 20 19 18 18 17 17 16 16 15 14 13 13 12 11 11 10 10 10 9 9 9 9 9 9 9 9 9 9 8 8 8 8
15 15 15 16 16 16 17 17 18 19 19 19 18 18 18 17 17 17 16 15 15 14 13 13 12 11 11 10 10 9 9 9 9 9 9 9 9 9 9 9 9 8 8 8
14 15 15 15 15 15 16 16 16 17 17 17 17 17 17 17 17 16 16 15 15 14 13 12 12 11 11 10 10 9 9 9 9 9 9 9 9 9 9 9 9 9 8 8
13 14 14 14 14 14 14 15 15 15 15 15 16 16 16 16 16 16 15 15 14 13 13 12 12 11 10 10 10 9 9 9 8 8 9 9 9 9 9 9 9 9 9 8
13 13 13 13 13 13 14 14 14 14 14 14 15 15 15 15 15 15 15 14 14 13 12 12 11 11 10 10 9 9 9 8 8 8 9 9 9 9 9 9 9 9 9 9
12 12 12 12 12 12 12 13 13 13 13 13 13 13 14 14 14 14 14 14 13 13 12 11 11 10 10 9 9 9 8 8 8 8 8 8 9 9 9 9 9 9 9 9
11 11 11 12 12 12 12 12 12 12 12 12 13 13 13 13 13 13 13 13 13 12 12 11 11 10 9 9 8 8 8 8 8 8 8 8 8 9 9 9 9 9 9 9
11 11 11 11 11 11 11 11 11 11 11 11 12 12 12 12 13 13 13 12 12 11 11 10 10 9 9 8 8 8 8 8 8 8 8 8 8 8 9 9 9 9 9 9
10 11 11 11 11 11 11 11 10 10 10 10 11 11 11 12 12 12 12 11 11 11 10 9 9 9 8 8 7 7 7 7 7 7 8 8 8 8 8 8 9 9 9 9
10 10 10 10 10 10 10 10 10 10 10 10 10 10 10 10 11 11 11 11 10 10 9 9 8 8 8 7 7 7 7 7 7 7 7 7 8 8 8 8 8 8 9 9
Wind_Speed
5 6 5 6 5 3 5 8 8 8 11 11 11 11 10 9 9 8 7 6 5 3 3 4 5 5 5 5 5 5 5 6 7 8 8 8 8 8 8 8 9 8 9 9
6 8 9 8 5 1 4 5 7 9 6 8 7 7 7 8 9 8 6 5 4 3 3 4 5 5 5 5 5 5 6 7 8 8 8 8 8 8 8 9 9 9 9 10
4 8 7 5 3 2 3 4 8 7 8 7 6 8 9 8 8 7 6 5 4 4 4 5 5 5 5 5 5 5 7 7 8 7 8 8 9 9 9 9 9 10 10 10
1 6 4 8 5 5 7 4 6 9 8 9 9 7 7 8 9 8 7 6 4 4 4 4 4 4 4 4 5 6 7 8 8 8 9 9 9 9 9 9 9 9 10 10
3 1 6 8 4 4 7 3 4 9 9 8 7 5 2 7 8 8 7 6 5 5 4 3 4 4 4 5 6 7 7 8 8 8 9 10 10 10 10 9 10 9 9 10
4 3 6 8 5 5 9 2 4 8 9 9 9 2 5 7 7 8 7 5 4 3 2 3 5 4 4 6 6 8 8 8 8 8 9 10 11 11 10 9 10 10 10 9
5 6 8 8 5 4 2 8 9 10 10 9 8 7 6 8 8 8 7 5 5 3 2 4 5 3 5 6 7 8 8 8 8 9 9 10 10 9 10 10 10 9 9 9
4 3 7 7 4 6 9 7 9 10 10 10 9 8 8 10 9 8 6 5 4 2 4 5 4 3 5 7 8 7 7 8 9 10 10 11 10 10 10 9 9 9 8 8
7 8 9 8 10 9 9 9 9 10 10 11 10 9 10 9 9 8 7 5 4 3 4 5 5 4 6 7 7 7 7 8 9 10 10 9 9 10 10 8 7 8 7 7
3 8 8 8 7 6 9 10 10 10 11 11 11 10 10 9 8 7 5 5 4 3 4 5 5 5 5 6 5 6 7 9 9 10 11 10 8 8 8 8 8 8 7 6
5 8 6 5 6 8 8 9 9 9 10 12 12 11 11 9 9 8 6 5 4 4 4 6 5 5 6 5 4 6 8 8 9 9 9 10 9 8 9 9 9 9 7 6
7 9 6 8 8 8 9 11 12 12 11 10 12 12 11 10 9 8 7 5 5 4 5 5 5 5 6 4 4 5 7 8 8 8 9 9 9 11 12 11 13 12 11 8
9 9 8 7 6 8 11 12 12 13 13 11 10 11 11 9 9 8 7 7 6 6 5 5 5 5 5 4 4 5 7 8 8 8 9 9 9 9 11 11 11 10 9 9
9 5 2 2 4 6 8 10 10 10 11 12 12 10 10 9 8 9 8 8 7 6 5 5 4 5 5 4 5 6 7 9 9 8 8 9 9 9 8 8 9 7 6 6
6 4 4 2 0 1 2 4 5 6 8 9 10 10 11 11 10 10 8 7 6 5 5 5 5 5 5 4 5 6 7 7 7 8 8 8 8 8 7 7 6 6 5 4
4 8 8 8 6 4 3 2 2 5 7 9 9 10 11 11 10 9 8 8 6 6 6 5 5 5 4 4 5 5 6 11 11 8 8 8 7 7 7 6 6 6 5 4
15 14 11 11 10 9 7 5 2 3 4 7 10 10 10 9 8 8 7 8 8 8 7 6 5 4 4 4 4 4 5 8 13 10 7 7 7 7 6 6 6 6 5 4
15 14 13 13 12 12 12 11 9 5 1 3 5 7 9 10 10 10 10 8 6 5 6 6 5 4 3 3 2 3 5 6 7 8 7 7 7 6 6 6 6 6 5 4
17 17 17 17 15 14 13 13 11 9 5 2 3 6 8 9 10 10 8 8 7 7 7 7 7 4 3 2 2 3 5 6 7 7 7 8 8 6 5 5 5 5 5 5
16 15 15 16 16 14 13 13 11 10 7 4 1 4 6 8 8 8 8 8 8 7 7 7 6 3 2 2 3 3 5 6 6 7 6 6 7 6 6 5 5 6 5 5
13 13 14 13 13 12 12 12 10 9 8 6 5 7 8 9 8 7 7 7 7 7 7 8 5 4 2 2 4 3 4 5 5 6 6 6 6 6 6 5 5 5 5 5
10 10 12 12 12 12 11 11 11 11 10 9 9 8 8 8 7 7 7 7 6 9 7 5 5 5 3 1 2 3 4 4 4 5 5 6 6 6 6 6 5 5 5 5
8 9 10 11 11 11 11 11 11 10 10 10 9 9 9 9 6 6 7 5 5 9 7 6 7 7 3 1 1 2 3 3 4 5 6 6 5 5 5 6 5 5 5 5
9 10 10 10 9 9 10 11 11 10 10 10 9 9 8 7 6 6 5 8 11 11 7 9 11 7 4 1 0 1 2 3 4 5 6 6 5 5 5 5 5 6 6 6
11 10 9 9 9 8 8 9 8 9 9 8 10 10 8 5 5 5 4 7 11 11 6 8 9 7 3 2 2 2 2 3 4 5 5 6 6 5 5 5 5 6 6 6
10 9 8 8 6 5 5 4 5 6 7 7 8 9 8 6 4 1 3 6 9 9 7 5 5 5 4 4 4 4 3 4 5 5 6 6 6 6 6 6 7 6 6 6
9 7 6 6 6 5 4 4 5 6 6 6 8 8 8 6 4 1 3 5 6 6 6 6 5 5 6 5 5 5 4 4 4 5 5 5 6 6 6 7 6 6 6 6
Wind_Direction
253 278 312 299 275 194 156 170 163 179 173 195 193 187 187 183 174 161 164 170 175 193 230 256 268 270 269 272 278 279 284 285 280 279 280 279 278 277 275 271 271 262 262 262
328 320 329 323 307 198 152 144 134 134 176 204 187 170 174 174 161 160 170 172 172 193 239 268 274 270 272 278 281 283 288 286 285 289 291 287 284 283 283 278 273 270 266 263
298 315 352 320 279 135 125 135 147 165 186 172 163 177 181 172 164 169 173 176 194 226 250 265 266 258 265 270 281 292 293 292 294 296 295 290 292 293 287 283 277 276 272 267
240 8 323 261 271 117 97 61 123 131 151 164 171 172 177 177 171 174 177 188 215 238 255 262 260 265 265 281 294 298 299 298 297 297 297 295 293 289 286 281 280 278 276 272
137 220 278 297 300 144 119 69 137 136 149 155 146 115 243 209 180 180 187 196 214 225 230 250 269 270 281 297 301 302 299 299 298 299 300 300 297 292 288 286 285 280 276 274
160 190 240 251 254 134 100 131 212 155 157 160 149 141 249 213 181 181 186 194 206 218 229 266 273 274 290 296 299 295 291 292 296 298 298 298 294 291 288 285 284 284 282 277
199 220 255 240 223 106 123 228 204 175 169 163 172 196 206 179 181 185 187 191 184 188 239 263 270 276 288 292 288 281 284 293 299 299 298 295 292 291 292 293 291 288 286 283
179 200 258 241 188 178 211 196 180 175 172 170 182 183 167 170 181 182 180 181 178 201 260 272 272 269 285 287 280 285 292 299 301 301 304 310 302 300 297 294 292 291 291 290
187 214 233 224 209 208 173 172 182 177 178 166 163 168 170 178 182 185 183 192 201 216 265 284 277 261 275 281 286 296 303 303 303 305 305 303 300 301 303 299 292 292 288 286
266 269 258 247 232 201 181 181 181 173 171 165 166 172 172 176 183 187 194 200 208 225 270 284 282 275 264 277 287 299 303 304 304 307 309 309 305 298 298 298 294 291 286 283
299 292 312 291 230 201 186 173 171 171 174 172 166 170 174 180 187 192 197 205 202 216 249 266 275 278 277 278 291 302 303 303 306 305 305 308 306 299 295 286 277 275 277 269
244 248 223 245 238 197 176 180 179 176 179 178 171 174 173 181 187 187 192 195 201 219 238 258 268 274 278 274 283 299 304 307 307 309 309 307 308 310 302 292 288 277 261 254
233 236 214 236 230 199 189 189 185 181 180 182 181 174 171 177 184 183 186 190 200 215 229 246 262 272 274 274 286 295 295 300 305 305 307 308 308 308 312 313 306 294 281 262
239 209 215 256 241 214 194 192 187 187 187 181 177 174 170 169 172 180 190 197 197 203 220 237 250 265 269 275 292 299 299 302 304 299 303 304 303 303 302 306 314 316 303 277
252 203 195 230 309 194 173 163 170 191 192 188 178 172 170 170 177 187 192 190 184 200 227 236 249 265 271 279 294 299 302 303 303 301 301 300 301 303 303 304 305 308 310 307
22 41 45 45 38 23 28 54 175 212 202 190 183 182 179 175 175 179 182 178 180 213 231 232 242 252 263 282 296 300 302 308 313 305 304 306 309 310 309 310 310 309 307 296
49 35 28 27 24 20 14 3 325 242 210 195 192 179 165 161 165 179 193 200 200 210 214 209 223 235 260 278 286 293 300 309 314 312 305 305 308 308 307 310 311 308 303 289
53 48 42 35 27 18 9 2 357 354 331 211 170 154 159 170 185 195 202 201 204 219 212 205 202 224 265 276 275 290 298 298 302 304 306 309 311 307 308 314 318 318 315 310
40 36 32 29 24 19 13 6 2 0 2 59 133 174 189 197 201 202 198 192 203 221 222 205 201 214 252 260 296 299 300 301 305 307 308 315 320 320 319 322 323 323 321 318
31 26 22 16 14 12 5 358 356 356 350 341 268 218 219 222 216 206 197 205 216 213 196 188 188 201 218 259 315 299 298 300 305 311 315 320 321 324 325 328 332 335 335 331
16 11 7 1 355 352 349 344 341 333 321 304 272 249 243 242 229 210 202 224 231 198 183 179 172 178 205 270 308 299 302 311 316 317 321 321 324 327 328 332 338 339 338 336
357 351 345 339 336 331 327 326 323 317 311 302 290 275 263 256 245 232 223 221 208 182 172 164 164 183 201 273 302 306 316 330 332 329 330 328 329 332 333 336 339 338 339 338
331 324 320 316 313 309 311 313 311 309 302 294 288 281 270 261 243 227 239 226 182 175 167 169 177 182 180 148 309 322 340 355 349 338 333 330 329 336 339 340 339 335 334 341
317 311 308 306 311 316 313 309 309 309 305 300 295 289 282 281 271 244 224 186 176 173 173 175 177 176 157 131 54 13 17 14 357 341 336 337 342 349 350 350 348 346 351 359
306 305 306 312 316 310 305 313 323 328 328 326 319 315 311 295 266 249 206 179 172 165 163 175 177 164 137 107 82 68 50 34 16 357 349 348 350 353 355 356 357 355 359 4
296 296 294 292 287 290 302 318 327 326 329 331 327 324 323 320 303 222 174 169 165 163 157 157 159 149 122 107 88 73 54 31 22 11 356 352 353 356 358 0 2 7 9 13
293 297 300 306 302 301 306 316 321 318 318 320 319 318 318 316 312 263 174 164 162 157 146 136 127 117 109 101 87 69 50 33 22 13 2 358 356 355 359 5 11 14 13 15
Height
1501 1495 1491 1490 1487 1487 1493 1500 1510 1509 1510 1507 1504 1503 1504 1505 1506 1506 1506 1506 1504 1503 1501 1499 1497 1494 1491 1489 1486 1482 1479 1475 1472 1468 1465 1461 1458 1455 1452 1449 1446 1443 1440 1438
1502 1492 1490 1489 1485 1483 1486 1489 1496 1502 1505 1499 1500 1501 1502 1503 1503 1503 1503 1502 1501 1500 1498 1495 1493 1490 1487 1484 1481 1478 1474 1471 1467 1463 1459 1456 1452 1449 1446 1442 1439 1436 1433 1430
1512 1500 1496 1500 1486 1483 1485 1484 1490 1499 1499 1497 1500 1500 1500 1500 1500 1500 1500 1499 1498 1496 1494 1491 1489 1486 1483 1480 1477 1473 1470 1466 1462 1458 1454 1451 1447 1443 1440 1436 1433 1429 1426 1423
1512 1511 1514 1500 1479 1478 1484 1486 1484 1488 1492 1493 1495 1497 1497 1497 1497 1496 1496 1495 1494 1492 1490 1488 1485 1482 1479 1476 1473 1469 1465 1461 1457 1453 1449 1445 1441 1437 1434 1430 1426 1423 1419 1416
1515 1516 1510 1492 1480 1479 1486 1493 1488 1488 1491 1493 1494 1496 1496 1495 1494 1493 1493 1492 1490 1489 1486 1484 1481 1478 1475 1472 1469 1465 1461 1457 1453 1448 1444 1439 1435 1432 1428 1424 1420 1417 1413 1409
1509 1513 1516 1496 1478 1475 1483 1496 1487 1486 1487 1489 1492 1497 1494 1491 1490 1490 1489 1488 1487 1485 1483 1481 1478 1475 1471 1468 1464 1460 1457 1452 1448 1444 1439 1434 1430 1426 1422 1418 1414 1411 1407 1404
1506 1510 1500 1481 1474 1475 1494 1492 1481 1481 1482 1483 1485 1487 1486 1486 1487 1487 1486 1485 1483 1482 1480 1477 1474 1471 1468 1464 1460 1457 1453 1448 1444 1439 1434 1429 1425 1421 1417 1413 1409 1405 1402 1398
1504 1509 1501 1472 1472 1477 1478 1472 1474 1476 1477 1478 1480 1481 1482 1483 1483 1483 1483 1482 1480 1478 1476 1473 1471 1467 1464 1460 1457 1453 1448 1444 1439 1435 1430 1425 1420 1416 1412 1408 1404 1400 1397 1393
1491 1489 1471 1466 1466 1465 1466 1468 1469 1471 1473 1474 1476 1477 1478 1479 1480 1480 1479 1478 1477 1475 1472 1470 1467 1464 1460 1457 1453 1449 1444 1440 1435 1430 1426 1421 1416 1412 1407 1403 1399 1395 1391 1388
1477 1471 1464 1463 1462 1462 1462 1462 1464 1466 1468 1470 1471 1473 1474 1475 1476 1476 1475 1474 1473 1471 1469 1466 1463 1460 1457 1453 1449 1445 1440 1436 1431 1426 1422 1417 1413 1408 1404 1399 1395 1391 1387 1383
1475 1467 1462 1460 1459 1458 1459 1460 1461 1463 1464 1465 1466 1468 1469 1470 1471 1471 1471 1470 1469 1467 1465 1462 1460 1457 1453 1449 1445 1441 1437 1432 1428 1423 1418 1414 1409 1405 1400 1396 1392 1387 1383 1379
1472 1462 1461 1457 1456 1455 1455 1456 1457 1458 1459 1460 1461 1462 1464 1465 1465 1466 1466 1465 1464 1463 1461 1458 1456 1453 1449 1446 1442 1438 1433 1429 1424 1420 1415 1411 1406 1401 1397 1393 1388 1383 1379 1375
1458 1456 1455 1453 1452 1451 1451 1452 1453 1453 1454 1455 1456 1457 1458 1459 1460 1461 1461 1460 1459 1458 1456 1454 1451 1449 1445 1442 1438 1434 1430 1426 1421 1417 1413 1408 1403 1398 1392 1388 1384 1380 1376 1372
1453 1452 1450 1449 1449 1448 1447 1448 1449 1449 1450 1450 1451 1452 1453 1454 1455 1456 1456 1456 1455 1454 1452 1450 1447 1445 1442 1438 1435 1431 1427 1423 1419 1414 1410 1406 1401 1396 1391 1386 1381 1377 1374 1370
1448 1447 1446 1445 1445 1445 1445 1445 1445 1445 1445 1445 1446 1447 1448 1449 1450 1451 1452 1452 1451 1450 1448 1445 1443 1441 1438 1434 1431 1428 1424 1420 1416 1412 1408 1404 1399 1394 1389 1384 1380 1375 1372 1369
1445 1444 1443 1442 1442 1443 1442 1442 1442 1441 1441 1441 1441 1442 1443 1444 1446 1447 1447 1447 1446 1445 1443 1441 1439 1437 1434 1431 1427 1424 1421 1417 1414 1410 1406 1402 1397 1392 1388 1383 1379 1375 1371 1368
1445 1445 1445 1444 1443 1443 1442 1441 1440 1439 1438 1438 1438 1438 1440 1441 1442 1442 1443 1443 1441 1439 1438 1436 1435 1433 1430 1427 1424 1421 1417 1414 1411 1408 1404 1400 1395 1391 1386 1382 1378 1374 1371 1368
1451 1451 1450 1448 1446 1444 1443 1441 1439 1438 1437 1436 1436 1436 1437 1438 1438 1437 1437 1437 1436 1435 1433 1432 1431 1429 1426 1423 1421 1417 1415 1412 1409 1406 1402 1398 1394 1390 1386 1382 1378 1374 1371 1368
1454 1453 1452 1451 1449 1447 1445 1443 1440 1438 1437 1436 1435 1435 1434 1434 1433 1432 1432 1431 1430 1430 1429 1428 1427 1425 1422 1420 1417 1414 1412 1409 1406 1404 1401 1397 1393 1389 1386 1382 1378 1375 1372 1368
1457 1456 1454 1452 1450 1449 1447 1445 1443 1441 1439 1438 1436 1434 1432 1431 1429 1428 1427 1426 1425 1425 1424 1423 1422 1421 1419 1416 1414 1411 1409 1406 1404 1402 1399 1396 1392 1389 1386 1382 1379 1376 1372 1369
1459 1457 1455 1453 1451 1450 1448 1446 1443 1440 1439 1437 1435 1432 1429 1427 1425 1423 1421 1420 1420 1420 1419 1418 1418 1417 1415 1413 1410 1408 1406 1404 1402 1400 1397 1394 1391 1389 1386 1383 1380 1377 1373 1370
1461 1458 1456 1453 1450 1448 1446 1443 1440 1438 1435 1433 1431 1428 1424 1421 1419 1417 1416 1415 1415 1414 1414 1413 1413 1412 1411 1409 1407 1406 1404 1401 1400 1398 1396 1393 1391 1388 1386 1383 1380 1377 1375 1372
1461 1458 1455 1452 1448 1445 1442 1439 1436 1433 1431 1428 1425 1422 1419 1416 1413 1411 1409 1409 1409 1408 1408 1408 1408 1408 1407 1406 1404 1403 1401 1399 1398 1396 1394 1392 1390 1388 1386 1383 1381 1378 1376 1373
1458 1454 1451 1448 1445 1441 1438 1434 1431 1428 1425 1422 1419 1415 1412 1408 1406 1404 1403 1403 1403 1403 1403 1402 1403 1403 1403 1402 1401 1400 1399 1397 1395 1394 1392 1391 1389 1387 1385 1384 1381 1379 1377 1374
1453 1450 1446 1443 1440 1437 1434 1430 1427 1424 1421 1417 1414 1410 1407 1403 1400 1398 1397 1396 1396 1397 1398 1399 1399 1399 1399 1399 1398 1397 1396 1394 1393 1392 1391 1389 1388 1386 1385 1383 1382 1380 1378 1375
1448 1446 1443 1440 1437 1434 1431 1428 1424 1421 1417 1413 1410 1406 1402 1399 1396 1393 1392 1392 1392 1393 1394 1394 1395 1396 1395 1395 1395 1394 1393 1392 1391 1390 1389 1388 1387 1386 1384 1383 1382 1380 1378 1376
1444 1442 1439 1436 1434 1431 1428 1424 1421 1418 1414 1411 1407 1403 1399 1395 1392 1390 1388 1388 1388 1389 1390 1391 1392 1392 1392 1392 1392 1391 1390 1389 1388 1387 1386 1386 1385 1384 1383 1382 1381 1380 1379 1377